Location: Unspecified
(35.7250°N, 0.0000°E)
Time: 17:42:55
(UTC+00:00)

Courier 1B Rocket - All Passes

Search period start: 19 June 2019 00:00
Search period end: 29 June 2019 00:00
Orbit: 920 x 1202 km, 28.2° (Epoch: 19 June)

Date Brightness Start Highest point End Pass type
(mag) Time Alt. Az. Time Alt. Az. Time Alt. Az.
19 Jun - 03:07:32 10° S 03:09:50 12° SSE 03:12:05 10° SE visible
19 Jun - 04:56:59 10° SW 05:02:34 29° SSE 05:07:54 10° ESE daylight
19 Jun - 06:49:25 10° WSW 06:55:27 42° S 07:01:17 10° ESE daylight
19 Jun - 08:42:39 10° WSW 08:48:21 37° S 08:54:02 10° SE daylight
19 Jun - 10:36:48 10° WSW 10:41:04 19° SSW 10:45:23 10° SSE daylight
20 Jun - 03:56:30 10° SSW 04:01:42 23° SSE 04:06:41 10° ESE visible
20 Jun - 05:48:30 10° WSW 05:54:35 40° S 06:00:24 10° ESE daylight
20 Jun - 07:41:36 10° WSW 07:47:32 41° S 07:53:19 10° ESE daylight
20 Jun - 09:35:20 10° WSW 09:40:18 25° SSW 09:45:17 10° SSE daylight
21 Jun - 02:56:21 10° SSW 03:00:51 18° SSE 03:05:11 10° ESE visible
21 Jun - 04:47:37 10° SW 04:53:42 35° SSE 04:59:28 10° ESE daylight
21 Jun - 06:40:33 10° WSW 06:46:40 43° S 06:52:33 10° ESE daylight
21 Jun - 08:34:04 10° WSW 08:39:32 31° SSW 08:44:55 10° SE daylight
21 Jun - 10:29:20 10° SW 10:32:07 13° SSW 10:34:55 10° S daylight
22 Jun - 01:56:51 10° S 01:59:59 13° SSE 02:03:02 10° SE visible
22 Jun - 03:46:51 10° SW 03:52:49 30° SSE 03:58:26 10° ESE visible
22 Jun - 05:39:29 10° WSW 05:45:47 43° S 05:51:46 10° ESE daylight
22 Jun - 07:32:53 10° WSW 07:38:44 37° SSW 07:44:24 10° SE daylight
22 Jun - 09:27:13 10° WSW 09:31:24 19° SSW 09:35:34 10° SSE daylight
23 Jun - 02:46:15 10° SSW 02:51:54 25° SSE 02:57:15 10° ESE visible
23 Jun - 04:38:27 10° WSW 04:44:52 41° S 04:50:54 10° ESE daylight
23 Jun - 06:31:43 10° WSW 06:37:53 42° S 06:43:46 10° ESE daylight
23 Jun - 08:25:38 10° WSW 08:30:40 25° SSW 08:35:36 10° SSE daylight
24 Jun - 01:45:59 10° SSW 01:50:59 20° SSE 01:55:47 10° ESE visible
24 Jun - 03:37:28 10° SW 03:43:55 37° SSE 03:49:59 10° ESE visible
24 Jun - 05:30:33 10° WSW 05:36:59 44° S 05:43:03 10° ESE daylight
24 Jun - 07:24:14 10° WSW 07:29:53 31° SSW 07:35:19 10° SE daylight
24 Jun - 09:19:46 10° SW 09:22:27 13° SSW 09:25:05 10° S daylight
25 Jun - 00:46:16 10° S 00:50:04 15° SSE 00:53:45 10° ESE visible
25 Jun - 02:36:36 10° SW 02:42:58 32° SSE 02:48:57 10° ESE visible
25 Jun - 04:29:23 10° WSW 04:36:02 45° S 04:42:15 10° ESE daylight
25 Jun - 06:22:56 10° WSW 06:29:03 37° SSW 06:34:51 10° SE daylight
25 Jun - 08:17:27 10° WSW 08:21:43 19° SSW 08:25:55 10° SSE daylight
26 Jun - 01:35:57 10° SSW 01:41:59 27° SSE 01:47:44 10° ESE visible
26 Jun - 03:28:16 10° WSW 03:35:03 43° S 03:41:24 10° ESE visible
26 Jun - 05:21:40 10° WSW 05:28:10 43° S 05:34:15 10° ESE daylight
26 Jun - 07:15:44 10° WSW 07:20:59 25° SSW 07:26:02 10° SSE daylight
27 Jun - 00:35:35 10° SSW 00:41:00 21° SSE 00:46:15 10° ESE visible
27 Jun - 02:27:13 10° SW 02:34:02 39° SSE 02:40:26 10° ESE visible
27 Jun - 04:20:25 10° WSW 04:27:12 46° S 04:33:32 10° ESE daylight
27 Jun - 06:14:14 10° WSW 06:20:10 32° SSW 06:25:48 10° SE daylight
27 Jun - 08:09:56 10° SW 08:12:44 13° SSW 08:15:29 10° S daylight
27 Jun - 23:35:46 10° S 23:40:02 16° SSE 23:44:13 10° ESE night (unlit)
28 Jun - 01:26:19 10° SW 01:33:00 34° SSE 01:39:22 10° ESE visible
28 Jun - 03:19:11 10° WSW 03:26:11 46° S 03:32:43 10° ESE visible
28 Jun - 05:12:50 10° WSW 05:19:18 39° SSW 05:25:21 10° SE daylight
28 Jun - 07:07:30 10° WSW 07:12:01 19° SSW 07:16:22 10° SSE daylight
28 Jun - 22:37:38 10° SSE 22:39:05 11° SSE 22:40:33 10° SE night (unlit)
